Starlink 5114

operational
NORAD ID: 54003 Int'l Des: 2022-125 Owner: SPXS Country: US Constellation: starlink
LEOCIRCULAR

About Starlink 5114

Description loading...

Live Position

Loading 3D Globe...

Upcoming Passes

Altitude History

Altitude vs Time

uPlot chart will show altitude changes over time

Two-Line Element Set

1 54003U 22125AR 26015.62002220 .00000546 00000-0 52395-4 0 9995
2 54003 53.2177 92.1601 0001204 94.2347 265.8783 15.08843989181457
Epoch: Jan 15, 2026 • Age: 13 hours

Current Status

Altitude 545.4 km
Velocity 7.60 km/s
Sub-Earth Point 52.98°N, 13.4°E
Launch Date Oct 5, 2022
Age 3.2 years
Type internet

Technical Details

Classification Payload
Mass 305.00 kg
Dry Mass 290.00 kg
Total Mass 305.00 kg
Length 0.20 m
Diameter 2.80 m
Span 9.00 m
Shape Box + pan
Manufacturer SPXS
Bus Type Starlink
Phase Status In Orbit
Owner/State SPXS/US

Large Constellations

Loading constellations...